Location: Unspecified
(0.0000°N, 0.0000°E)
Time: 22:40:57
(UTC+00:00)

ISS - Visible Passes

Search period start: 22 December 2014 00:00
Search period end: 01 January 2015 00:00
Orbit: 404 x 414 km, 51.6° (Epoch: 22 December)

Date Brightness Start Highest point End Pass type
(mag) Time Alt. Az. Time Alt. Az. Time Alt. Az.
29 Dec -2.0 19:41:15 10° NW 19:44:19 40° SW 19:44:51 36° SSW visible
30 Dec -3.4 18:50:03 10° NNW 18:53:16 65° NE 18:56:29 10° SE visible
31 Dec 0.5 19:38:09 10° WSW 19:38:31 10° SW 19:38:52 10° SW visible
